Location: Bremen
(53.0793°N, 8.8017°E)
Time: 11:50:30
(UTC+02:00)

Altair - Pass Details

Date: 14 April 2024
Orbit: 1501 x 1682 km, 47.2° (Epoch: 17 May)

Event Time Altitude Azimuth Distance (km) Brightness Sun altitude
Rises 02:30:44 0° 276° (W) 4,817 10.0 -25.9°
Reaches altitude 10° 02:33:58 10° 272° (W) 3,805 9.4 -25.7°
Maximum altitude 02:43:09 52° 200° (SSW) 1,858 7.5 -25.2°
Drops below altitude 10° 02:52:01 10° 127° (SE) 3,676 9.3 -24.7°
Sets 02:55:05 0° 123° (ESE) 4,644 9.9 -24.5°
